Previsão horária em Centralnyy

Hoje, 25 Julho, Domingo

Tempo Temperatura Precipitação Vento Pressão Humidade
00:00 +17°C° 0 mm 3 m/s 755 mmHg 74%
01:00 +16°C° 0 mm 3 m/s 755 mmHg 78%
02:00 +14°C° 0 mm 3 m/s 756 mmHg 81%
03:00 +13°C° 0 mm 3 m/s 756 mmHg 86%
04:00 +14°C° 0 mm 3 m/s 757 mmHg 79%
05:00 +16°C° 0 mm 3 m/s 757 mmHg 71%
06:00 +17°C° 0 mm 4 m/s 758 mmHg 64%
07:00 +19°C° 0 mm 4 m/s 758 mmHg 56%
08:00 +20°C° 0 mm 4 m/s 758 mmHg 48%
09:00 +22°C° 0 mm 4 m/s 759 mmHg 38%
10:00 +23°C° 0 mm 5 m/s 759 mmHg 35%
11:00 +23°C° 0 mm 5 m/s 759 mmHg 32%
12:00 +25°C° 0 mm 5 m/s 759 mmHg 29%
13:00 +25°C° 0 mm 5 m/s 759 mmHg 27%
14:00 +26°C° 0 mm 5 m/s 760 mmHg 26%
15:00 +26°C° 0 mm 5 m/s 760 mmHg 25%
16:00 +25°C° 0 mm 4 m/s 760 mmHg 27%
17:00 +25°C° 0 mm 4 m/s 760 mmHg 30%
18:00 +24°C° 0 mm 3 m/s 760 mmHg 32%
19:00 +21°C° 0 mm 3 m/s 760 mmHg 37%
20:00 +19°C° 0 mm 3 m/s 761 mmHg 41%
21:00 +16°C° 0 mm 2 m/s 761 mmHg 46%
22:00 +16°C° 0 mm 2 m/s 761 mmHg 48%
23:00 +15°C° 0 mm 2 m/s 762 mmHg 49%

Amanhã, 26 Julho, Segunda-feira

Tempo Temperatura Precipitação Vento Pressão Humidade
00:00 +14°C° 0 mm 2 m/s 762 mmHg 51%
01:00 +14°C° 0 mm 2 m/s 762 mmHg 52%
02:00 +14°C° 0 mm 1 m/s 762 mmHg 52%
03:00 +13°C° 0 mm 1 m/s 762 mmHg 53%
04:00 +15°C° 0 mm 1 m/s 762 mmHg 50%
05:00 +16°C° 0 mm 1 m/s 762 mmHg 47%
06:00 +19°C° 0 mm 1 m/s 763 mmHg 43%
07:00 +20°C° 0 mm 1 m/s 763 mmHg 41%
08:00 +21°C° 0 mm 1 m/s 763 mmHg 38%
09:00 +22°C° 0 mm 1 m/s 763 mmHg 36%
10:00 +23°C° 0 mm 2 m/s 763 mmHg 33%
11:00 +24°C° 0 mm 2 m/s 763 mmHg 31%
12:00 +25°C° 0 mm 3 m/s 762 mmHg 28%
13:00 +26°C° 0 mm 3 m/s 762 mmHg 27%
14:00 +26°C° 0 mm 3 m/s 762 mmHg 26%
15:00 +26°C° 0 mm 4 m/s 761 mmHg 25%
16:00 +26°C° 0 mm 3 m/s 761 mmHg 28%
17:00 +25°C° 0 mm 3 m/s 761 mmHg 30%
18:00 +25°C° 0 mm 3 m/s 761 mmHg 32%
19:00 +22°C° 0 mm 3 m/s 761 mmHg 38%
20:00 +19°C° 0 mm 2 m/s 761 mmHg 44%
21:00 +17°C° 0 mm 2 m/s 761 mmHg 50%
22:00 +18°C° 0 mm 1 m/s 761 mmHg 50%
23:00 +18°C° 0 mm 1 m/s 761 mmHg 50%

Depois de amanhã, 27 Julho, Terça-feira

Tempo Temperatura Precipitação Vento Pressão Humidade
00:00 +18°C° 0 mm 1 m/s 761 mmHg 50%
01:00 +16°C° 0 mm 1 m/s 761 mmHg 53%
02:00 +16°C° 0 mm 1 m/s 761 mmHg 57%
03:00 +15°C° 0 mm 1 m/s 761 mmHg 60%
04:00 +16°C° 0 mm 1 m/s 761 mmHg 57%
05:00 +18°C° 0 mm 1 m/s 761 mmHg 54%
06:00 +19°C° 0 mm 1 m/s 761 mmHg 51%
07:00 +20°C° 0 mm 2 m/s 761 mmHg 46%
08:00 +23°C° 0 mm 2 m/s 761 mmHg 41%
09:00 +25°C° 0 mm 3 m/s 760 mmHg 36%
10:00 +26°C° 0 mm 3 m/s 760 mmHg 34%
11:00 +27°C° 0 mm 4 m/s 759 mmHg 32%
12:00 +27°C° 0 mm 4 m/s 759 mmHg 31%
13:00 +27°C° 0 mm 4 m/s 759 mmHg 32%
14:00 +27°C° 0 mm 4 m/s 758 mmHg 33%
15:00 +27°C° 0 mm 4 m/s 758 mmHg 34%
16:00 +27°C° 0 mm 4 m/s 758 mmHg 36%
17:00 +26°C° 0 mm 4 m/s 758 mmHg 38%
18:00 +26°C° 0 mm 4 m/s 757 mmHg 40%
19:00 +24°C° 0 mm 3 m/s 757 mmHg 49%
20:00 +21°C° 0 mm 3 m/s 757 mmHg 59%
21:00 +19°C° 0 mm 2 m/s 758 mmHg 68%
22:00 +18°C° 0 mm 2 m/s 758 mmHg 74%
23:00 +17°C° 0 mm 2 m/s 758 mmHg 81%

28 Julho, Quarta-feira

Tempo Temperatura Precipitação Vento Pressão Humidade
00:00 +16°C° 0 mm 2 m/s 758 mmHg 88%
01:00 +15°C° 0 mm 2 m/s 758 mmHg 88%
02:00 +15°C° 0 mm 2 m/s 758 mmHg 88%
03:00 +14°C° 0 mm 2 m/s 758 mmHg 88%
04:00 +15°C° 0 mm 2 m/s 758 mmHg 83%
05:00 +16°C° 0 mm 2 m/s 758 mmHg 77%
06:00 +17°C° 0 mm 2 m/s 759 mmHg 72%
07:00 +19°C° 0 mm 3 m/s 759 mmHg 62%
08:00 +21°C° 0 mm 3 m/s 759 mmHg 53%
09:00 +24°C° 0 mm 3 m/s 758 mmHg 43%
10:00 +25°C° 0 mm 3 m/s 758 mmHg 37%
11:00 +26°C° 0 mm 3 m/s 758 mmHg 32%
12:00 +27°C° 0 mm 3 m/s 758 mmHg 26%
13:00 +27°C° 0 mm 3 m/s 757 mmHg 25%
14:00 +28°C° 0 mm 3 m/s 757 mmHg 24%
15:00 +28°C° 0 mm 3 m/s 757 mmHg 22%
16:00 +28°C° 0 mm 3 m/s 757 mmHg 24%
17:00 +27°C° 0 mm 2 m/s 756 mmHg 26%
18:00 +27°C° 0 mm 2 m/s 756 mmHg 28%
19:00 +24°C° 0 mm 2 m/s 756 mmHg 32%
20:00 +22°C° 0 mm 1 m/s 756 mmHg 36%
21:00 +20°C° 0 mm 1 m/s 756 mmHg 40%
22:00 +19°C° 0 mm 1 m/s 756 mmHg 41%
23:00 +19°C° 0 mm 1 m/s 756 mmHg 42%

29 Julho, Quinta-feira

Tempo Temperatura Precipitação Vento Pressão Humidade
00:00 +18°C° 0 mm 2 m/s 756 mmHg 42%
01:00 +17°C° 0 mm 2 m/s 755 mmHg 44%
02:00 +17°C° 0 mm 2 m/s 755 mmHg 45%
03:00 +17°C° 0 mm 2 m/s 755 mmHg 46%
04:00 +18°C° 0 mm 2 m/s 755 mmHg 48%
05:00 +19°C° 0 mm 2 m/s 755 mmHg 50%
06:00 +21°C° 0 mm 3 m/s 755 mmHg 52%
07:00 +24°C° 0 mm 3 m/s 754 mmHg 47%
08:00 +26°C° 0 mm 4 m/s 754 mmHg 42%
09:00 +29°C° 0 mm 5 m/s 754 mmHg 37%
10:00 +28°C° 0 mm 5 m/s 754 mmHg 38%
11:00 +28°C° 0 mm 5 m/s 754 mmHg 39%
12:00 +27°C° 0 mm 6 m/s 754 mmHg 40%
13:00 +26°C° 0 mm 5 m/s 754 mmHg 50%
14:00 +23°C° 0 mm 4 m/s 754 mmHg 60%
15:00 +21°C° 0 mm 3 m/s 754 mmHg 71%
16:00 +21°C° 0.1 mm 3 m/s 753 mmHg 74%
17:00 +20°C° 0.1 mm 3 m/s 753 mmHg 78%
18:00 +19°C° 0.1 mm 3 m/s 752 mmHg 82%
19:00 +19°C° 0 mm 3 m/s 752 mmHg 81%
20:00 +19°C° 0 mm 3 m/s 752 mmHg 80%
21:00 +19°C° 0 mm 3 m/s 752 mmHg 80%
22:00 +18°C° 0 mm 3 m/s 752 mmHg 82%
23:00 +18°C° 0 mm 2 m/s 752 mmHg 84%

30 Julho, Sexta-feira

Tempo Temperatura Precipitação Vento Pressão Humidade
00:00 +18°C° 0 mm 2 m/s 752 mmHg 87%
01:00 +18°C° 0.3 mm 2 m/s 752 mmHg 89%
02:00 +18°C° 0.3 mm 2 m/s 752 mmHg 91%
03:00 +18°C° 0.3 mm 2 m/s 752 mmHg 93%
04:00 +18°C° 0.2 mm 2 m/s 752 mmHg 91%
05:00 +19°C° 0.2 mm 2 m/s 752 mmHg 88%
06:00 +19°C° 0.2 mm 2 m/s 752 mmHg 86%
07:00 +21°C° 0 mm 2 m/s 752 mmHg 76%
08:00 +24°C° 0 mm 2 m/s 752 mmHg 67%
09:00 +26°C° 0 mm 2 m/s 752 mmHg 58%
10:00 +27°C° 0 mm 2 m/s 752 mmHg 53%
11:00 +29°C° 0 mm 3 m/s 752 mmHg 48%
12:00 +30°C° 0 mm 3 m/s 751 mmHg 43%
13:00 +30°C° 0 mm 2 m/s 751 mmHg 42%
14:00 +31°C° 0 mm 2 m/s 751 mmHg 42%
15:00 +31°C° 0 mm 1 m/s 751 mmHg 42%
16:00 +30°C° 0.1 mm 2 m/s 751 mmHg 48%
17:00 +28°C° 0.1 mm 2 m/s 751 mmHg 54%
18:00 +27°C° 0.1 mm 2 m/s 752 mmHg 59%
19:00 +26°C° 0 mm 2 m/s 752 mmHg 62%
20:00 +25°C° 0 mm 1 m/s 752 mmHg 64%
21:00 +24°C° 0 mm 1 m/s 752 mmHg 67%
22:00 +24°C° 0 mm 2 m/s 752 mmHg 69%
23:00 +23°C° 0 mm 2 m/s 753 mmHg 70%
Mostrar mais

Necessitamos do seu Consentimento

A Meteoprog e os seus Fornecedores de Serviços podem armazenar e aceder a dados pessoais como cookies, identificadores do dispositivo ou outras tecnologias semelhantes existentes no seu dispositivo e processar estes dados para personalizar conteúdos e anúncios, assim como funcionalidades nas redes sociais e análise de tráfego.

  • Armazenar e/ou aceder a informações no seu dispositivo

    Os cookies, identificadores do dispositivo ou outras informações podem ser armazenados ou acedidos no seu dispositivo, para os fins acima indicados.

  • Anúncios e conteúdos personalizados, medição de anúncios e conteúdos, dados sobre o público-alvo e desenvolvimento de produtos

    Os anúncios e os conteúdos podem ser personalizados com base num perfil. Podem ser adicionados dados adicionais para uma maior personalização dos anúncios e dos conteúdos. A eficácia dos anúncios e dos conteúdos pode ser medida. Podem ser obtidas informações sobre o público que visualizou os anúncios e os conteúdos. Estes dados podem ser usados para desenvolver ou melhorar sistemas, softwares ou a experiência do utilizador.

Ao clicar em "Eu concordo”, permitirá o uso de cookies, identificadores do dispositivo e web beacons mencionados ou outras tecnologias semelhantes. As configurações do navegador do seu dispositivo podem ser alteradas.

Para certos fins, podem ser invocados interesses legítimos ao invés de consentimento. Pode ler mais informação sobre este assunto na nossa Política de Privacidade e Cookies.